Alexandria, LA

10:38 PM CDT on May 28, 2017 (GMT -0500)
Alexandria International

Weather History for KAEX - April, 2014

Change the Weather History Date:

Tuesday, April 22, 2014

  Actual Average Record
Temperature  
Mean Temperature 72 °F 68 °F  
Max Temperature 83 °F 80 °F 94 °F (1987)
Min Temperature 60 °F 56 °F 36 °F (1931)
Degree Days  
Heating Degree Days 0 1  
Month to date heating degree days 81 60  
Since 1 July heating degree days 2414 1940  
Cooling Degree Days 7 4  
Month to date cooling degree days 55 66  
Year to date cooling degree days 79 119  
Growing Degree Days 23 (Base 50)    
Moisture  
Dew Point 63 °F    
Average Humidity 74    
Maximum Humidity 100    
Minimum Humidity 47    
Precipitation  
Precipitation 0.07 in 0.14 in 3.05 in (1921)
Month to date precipitation 2.99 3.62  
Year to date precipitation 13.28 18.35  
Snow  
Snow 0.00 in - 0.00 in ()
Month to date snowfall 0.0  
Since 1 July snowfall 5.0  
Snow Depth 0.00 in    
Sea Level Pressure  
Sea Level Pressure 29.95 in    
Wind  
Wind Speed 6 mph (WNW)    
Max Wind Speed 15 mph    
Max Gust Speed 20 mph    
Visibility 8 miles    
Events Rain , Thunderstorm    
T = Trace of Precipitation, MM = Missing Value Source: NWS Daily Summary

Daily Weather History Graph

Daily Weather History Graph

Search for Another Location

Airport or City:

Trip Planner

Search our weather history database for the weather conditions in past years. The results will help you decide how hot, cold, wet, or windy it might be!

Date:

Astronomy

Apr. 22, 2014 Rise Set
Actual Time 6:34 AM CDT 7:43 PM CDT
Civil Twilight 6:09 AM CDT 8:08 PM CDT
Nautical Twilight 5:39 AM CDT 8:38 PM CDT
Astronomical Twilight 5:08 AM CDT 9:09 PM CDT
Moon 1:56 AM CDT (4/22) 1:11 PM CDT (4/22)
Length of Visible Light 13h 59m
Length of Day
13h 09m
Last Quarter, 46% of the Moon is Illuminated
Apr 22
Last Quarter
Apr 29
New
May 6
First Quarter
May 14
Full
May 21
Last Quarter

Hourly Weather History & Observations

Time (CDT) Temp. Heat Index Dew Point Humidity Pressure Visibility Wind Dir Wind Speed Gust Speed Precip Events Conditions
12:53 AM 66.0 °F - 61.0 °F 84% 29.97 in 10.0 mi SSW 6.9 mph - N/A   Partly Cloudy
1:53 AM 64.9 °F - 62.1 °F 90% 29.96 in 10.0 mi SSW 8.1 mph - N/A   Clear
2:28 AM 64.9 °F - 62.1 °F 90% 29.95 in 9.0 mi SW 9.2 mph - N/A   Mostly Cloudy
2:53 AM 64.9 °F - 62.1 °F 90% 29.95 in 8.0 mi SSW 6.9 mph - N/A   Overcast
3:53 AM 66.0 °F - 63.0 °F 90% 29.96 in 8.0 mi WSW 4.6 mph - N/A   Overcast
4:12 AM 66.0 °F - 63.0 °F 90% 29.95 in 8.0 mi Variable 4.6 mph - N/A Thunderstorm Overcast
4:24 AM 64.9 °F - 64.0 °F 97% 29.93 in 3.0 mi South 6.9 mph - 0.04 in Rain , Thunderstorm Heavy Thunderstorms and Rain
4:38 AM 64.9 °F - 64.0 °F 97% 29.93 in 4.0 mi SW 4.6 mph - 0.07 in Rain , Thunderstorm Light Thunderstorms and Rain
4:53 AM 64.9 °F - 64.0 °F 97% 29.94 in 7.0 mi WSW 8.1 mph - 0.07 in Thunderstorm Overcast
5:04 AM 64.9 °F - 64.0 °F 97% 29.93 in 7.0 mi SW 4.6 mph - N/A   Mostly Cloudy
5:36 AM 64.9 °F - 64.0 °F 97% 29.93 in 6.0 mi West 3.5 mph - N/A   Mostly Cloudy
5:53 AM 66.0 °F - 64.0 °F 93% 29.95 in 5.0 mi West 5.8 mph - N/A   Overcast
6:20 AM 66.0 °F - 64.9 °F 96% 29.94 in 5.0 mi WSW 5.8 mph - N/A   Overcast
6:53 AM 66.0 °F - 64.9 °F 96% 29.95 in 4.0 mi West 6.9 mph - N/A   Overcast
7:00 AM 66.0 °F - 64.9 °F 96% 29.95 in 4.0 mi West 5.8 mph - N/A   Mostly Cloudy
7:53 AM 66.9 °F - 64.9 °F 93% 29.96 in 5.0 mi WNW 9.2 mph - N/A   Overcast
8:43 AM 68.0 °F - 64.9 °F 90% 29.96 in 8.0 mi NW 10.4 mph - N/A   Overcast
8:53 AM 68.0 °F - 64.9 °F 90% 29.97 in 8.0 mi WNW 11.5 mph - N/A   Overcast
9:35 AM 69.1 °F - 64.9 °F 87% 29.97 in 9.0 mi NW 8.1 mph - N/A   Overcast
9:53 AM 69.1 °F - 64.0 °F 84% 29.98 in 10.0 mi NW 11.5 mph - N/A   Overcast
10:53 AM 71.1 °F - 64.0 °F 78% 29.99 in 10.0 mi NW 9.2 mph - N/A   Overcast
11:05 AM 72.0 °F - 64.0 °F 76% 29.98 in 10.0 mi NNW 11.5 mph - N/A   Overcast
11:15 AM 71.1 °F - 63.0 °F 75% 29.98 in 10.0 mi NNW 13.8 mph 18.4 mph N/A   Overcast
11:29 AM 71.1 °F - 62.1 °F 73% 29.99 in 10.0 mi NNW 11.5 mph 20.7 mph N/A   Overcast
11:53 AM 73.9 °F - 63.0 °F 68% 29.99 in 10.0 mi NNW 9.2 mph - N/A   Mostly Cloudy
12:53 PM 75.0 °F - 61.0 °F 62% 29.97 in 10.0 mi Variable 6.9 mph - N/A   Scattered Clouds
1:53 PM 77.0 °F - 62.1 °F 60% 29.96 in 10.0 mi WNW 5.8 mph - N/A   Mostly Cloudy
2:53 PM 79.0 °F - 61.0 °F 54% 29.94 in 10.0 mi NW 6.9 mph - N/A   Scattered Clouds
3:53 PM 80.1 °F 81.1 °F 61.0 °F 52% 29.92 in 10.0 mi NNW 6.9 mph - N/A   Scattered Clouds
4:53 PM 82.9 °F 83.3 °F 61.0 °F 47% 29.91 in 10.0 mi NE 5.8 mph - N/A   Mostly Cloudy
5:53 PM 80.1 °F 80.9 °F 60.1 °F 50% 29.90 in 10.0 mi NNW 6.9 mph - N/A   Mostly Cloudy
6:53 PM 75.9 °F - 61.0 °F 60% 29.89 in 10.0 mi North 4.6 mph - N/A   Clear
7:53 PM 72.0 °F - 61.0 °F 68% 29.91 in 10.0 mi North 4.6 mph - N/A   Partly Cloudy
8:53 PM 68.0 °F - 61.0 °F 78% 29.93 in 10.0 mi Calm Calm - N/A   Clear
9:53 PM 64.0 °F - 60.1 °F 87% 29.95 in 10.0 mi Calm Calm - N/A   Clear
10:53 PM 64.0 °F - 60.1 °F 87% 29.95 in 10.0 mi Calm Calm - N/A   Clear
11:53 PM 62.1 °F - 60.1 °F 93% 29.95 in 9.0 mi Calm Calm - N/A   Clear